Location: Newark
(47.5833°N, 8.1500°E)
Time: 23:36:16
(UTC+00:00)

Tiros 1 despin weight - Pass Details

Date: 29 October 2020
Orbit: 593 x 642 km, 48.2° (Epoch: 29 November)

Event Time Altitude Azimuth Distance (km) Brightness Sun altitude
Rises 02:06:04 0° 268° (W) 2,851 - -40.3°
Reaches altitude 10° 02:08:22 10° 270° (W) 1,941 - -40.0°
Maximum altitude 02:12:50 82° 358° (N) 607 - -39.3°
Drops below altitude 10° 02:17:15 10° 86° (E) 1,926 - -38.6°
Exits shadow 02:17:18 10° 86° (E) 1,942 ? -38.6°
Sets 02:19:32 0° 88° (E) 2,827 ? -38.3°
